Time,TemperatureF,DewpointF,PressureIn,WindDirection,WindDirectionDegrees,WindSpeedMPH,WindSpeedGustMPH,Humidity,HourlyPrecipIn,Conditions,Clouds,dailyrainin,SoftwareType,DateUTC
2013-04-19 00:00:00,30.9,30.4,28.69,North,0,4.0,8.0,98,0.00,,,0.00,meteohub,2013-04-19 05:00:00,
2013-04-19 00:05:00,30.7,30.2,28.69,NNW,338,1.0,8.0,98,0.00,,,0.00,meteohub,2013-04-19 05:05:00,
2013-04-19 00:10:00,30.7,30.2,28.69,NNW,338,10.0,10.0,98,0.00,,,0.00,meteohub,2013-04-19 05:10:00,
2013-04-19 00:15:00,30.7,30.2,28.69,North,0,6.0,10.0,98,0.00,,,0.00,meteohub,2013-04-19 05:15:00,
2013-04-19 00:21:00,30.7,30.2,28.69,WNW,292,4.0,10.0,98,0.00,,,0.00,meteohub,2013-04-19 05:21:00,
2013-04-19 00:26:00,30.7,30.2,28.69,North,0,9.0,12.0,98,0.00,,,0.00,meteohub,2013-04-19 05:26:00,
2013-04-19 00:31:00,30.7,30.2,28.69,NNW,338,3.0,12.0,98,0.00,,,0.00,meteohub,2013-04-19 05:31:00,
2013-04-19 00:36:00,30.7,30.2,28.69,North,0,3.0,12.0,98,0.00,,,0.00,meteohub,2013-04-19 05:36:00,
2013-04-19 00:41:00,30.7,30.2,28.69,North,0,6.0,12.0,98,0.00,,,0.00,meteohub,2013-04-19 05:41:00,
2013-04-19 00:46:00,30.7,30.2,28.69,NW,315,2.0,8.0,98,0.00,,,0.00,meteohub,2013-04-19 05:46:00,
2013-04-19 00:51:00,30.7,30.2,28.69,North,0,1.0,8.0,98,0.00,,,0.00,meteohub,2013-04-19 05:51:00,
2013-04-19 00:57:00,30.7,30.2,28.69,WNW,292,4.0,7.0,98,0.00,,,0.00,meteohub,2013-04-19 05:57:00,
2013-04-19 01:02:00,30.7,30.2,28.69,North,0,2.0,8.0,98,0.00,,,0.00,meteohub,2013-04-19 06:02:00,
2013-04-19 01:07:00,30.7,30.2,28.69,North,0,9.0,9.0,98,0.00,,,0.00,meteohub,2013-04-19 06:07:00,
2013-04-19 01:12:00,30.7,30.2,28.69,NW,315,3.0,9.0,98,0.00,,,0.00,meteohub,2013-04-19 06:12:00,
2013-04-19 01:17:00,30.7,30.2,28.69,North,0,6.0,11.0,98,0.00,,,0.00,meteohub,2013-04-19 06:17:00,
2013-04-19 01:22:00,30.7,30.2,28.69,NNW,338,3.0,11.0,98,0.00,,,0.00,meteohub,2013-04-19 06:22:00,
2013-04-19 01:27:00,30.7,30.2,28.69,WNW,292,4.0,11.0,98,0.00,,,0.00,meteohub,2013-04-19 06:27:00,
2013-04-19 01:32:00,30.7,30.2,28.69,WNW,292,4.0,11.0,98,0.00,,,0.00,meteohub,2013-04-19 06:32:00,
2013-04-19 01:37:00,30.7,30.2,28.69,WNW,292,5.0,11.0,98,0.00,,,0.00,meteohub,2013-04-19 06:37:00,
2013-04-19 01:42:00,30.7,30.2,28.69,WNW,292,6.0,9.0,98,0.00,,,0.00,meteohub,2013-04-19 06:42:00,
2013-04-19 01:47:00,30.7,30.0,28.69,WNW,292,6.0,12.0,97,0.00,,,0.00,meteohub,2013-04-19 06:47:00,
2013-04-19 01:52:00,30.7,30.0,28.69,NNW,338,6.0,12.0,97,0.00,,,0.00,meteohub,2013-04-19 06:52:00,
2013-04-19 01:57:00,30.7,30.0,28.69,WNW,292,9.0,12.0,97,0.00,,,0.00,meteohub,2013-04-19 06:57:00,
2013-04-19 02:02:00,30.7,30.0,28.66,WNW,292,13.0,13.0,97,0.00,,,0.00,meteohub,2013-04-19 07:02:00,
2013-04-19 02:07:00,30.9,30.2,28.66,NE,45,5.0,13.0,97,0.00,,,0.00,meteohub,2013-04-19 07:07:00,
2013-04-19 02:12:00,30.9,30.2,28.66,WNW,292,5.0,13.0,97,0.00,,,0.00,meteohub,2013-04-19 07:12:00,
2013-04-19 02:17:00,30.9,29.8,28.69,NNE,22,6.0,13.0,96,0.00,,,0.00,meteohub,2013-04-19 07:17:00,
2013-04-19 02:22:00,30.9,29.8,28.69,NW,315,4.0,13.0,96,0.00,,,0.00,meteohub,2013-04-19 07:22:00,
2013-04-19 02:27:00,30.9,29.8,28.69,NNW,338,6.0,12.0,96,0.00,,,0.00,meteohub,2013-04-19 07:27:00,
2013-04-19 02:32:00,30.9,29.7,28.66,NNE,22,6.0,10.0,95,0.00,,,0.00,meteohub,2013-04-19 07:32:00,
2013-04-19 02:37:00,30.9,29.7,28.66,WNW,292,3.0,9.0,95,0.00,,,0.00,meteohub,2013-04-19 07:37:00,
2013-04-19 02:42:00,30.9,29.5,28.66,NNE,22,9.0,14.0,94,0.00,,,0.00,meteohub,2013-04-19 07:42:00,
2013-04-19 02:47:00,31.1,29.7,28.66,North,0,5.0,14.0,94,0.00,,,0.00,meteohub,2013-04-19 07:47:00,
2013-04-19 02:52:00,30.9,29.1,28.66,North,0,6.0,14.0,93,0.00,,,0.00,meteohub,2013-04-19 07:52:00,
2013-04-19 02:57:00,30.9,29.1,28.66,NNE,22,3.0,12.0,93,0.00,,,0.00,meteohub,2013-04-19 07:57:00,
2013-04-19 03:02:00,30.9,29.1,28.69,NE,45,6.0,12.0,93,0.00,,,0.00,meteohub,2013-04-19 08:02:00,
2013-04-19 03:07:00,30.9,28.9,28.69,WNW,292,5.0,13.0,92,0.00,,,0.00,meteohub,2013-04-19 08:07:00,
2013-04-19 03:12:00,30.9,28.9,28.69,NNW,338,5.0,13.0,92,0.00,,,0.00,meteohub,2013-04-19 08:12:00,
2013-04-19 03:17:00,30.9,28.9,28.69,North,0,3.0,11.0,92,0.00,,,0.00,meteohub,2013-04-19 08:17:00,
2013-04-19 03:22:00,30.9,28.9,28.69,WNW,292,4.0,11.0,92,0.00,,,0.00,meteohub,2013-04-19 08:22:00,
2013-04-19 03:27:00,30.9,28.9,28.69,North,0,6.0,11.0,92,0.00,,,0.00,meteohub,2013-04-19 08:27:00,
2013-04-19 03:32:00,30.9,29.1,28.69,North,0,9.0,9.0,93,0.00,,,0.00,meteohub,2013-04-19 08:32:00,
2013-04-19 03:37:00,30.9,29.1,28.69,WNW,292,2.0,10.0,93,0.00,,,0.00,meteohub,2013-04-19 08:37:00,
2013-04-19 03:42:00,30.7,28.9,28.69,NNW,338,8.0,10.0,93,0.00,,,0.00,meteohub,2013-04-19 08:42:00,
2013-04-19 03:47:00,30.7,28.9,28.69,NNW,338,4.0,11.0,93,0.00,,,0.00,meteohub,2013-04-19 08:47:00,
2013-04-19 03:52:00,30.7,28.9,28.69,WNW,292,6.0,11.0,93,0.00,,,0.00,meteohub,2013-04-19 08:52:00,
2013-04-19 03:57:00,30.7,28.9,28.69,WNW,292,4.0,11.0,93,0.00,,,0.00,meteohub,2013-04-19 08:57:00,
2013-04-19 04:02:00,30.7,28.9,28.69,North,0,6.0,12.0,93,0.00,,,0.00,meteohub,2013-04-19 09:02:00,
2013-04-19 04:07:00,30.7,28.9,28.69,NW,315,10.0,12.0,93,0.00,,,0.00,meteohub,2013-04-19 09:07:00,
2013-04-19 04:12:00,30.7,28.9,28.69,NE,45,6.0,12.0,93,0.00,,,0.00,meteohub,2013-04-19 09:12:00,
2013-04-19 04:17:00,30.7,28.8,28.66,NNW,338,12.0,12.0,92,0.00,,,0.00,meteohub,2013-04-19 09:17:00,
2013-04-19 04:22:00,30.7,28.8,28.66,NNW,338,4.0,12.0,92,0.00,,,0.00,meteohub,2013-04-19 09:22:00,
2013-04-19 04:27:00,30.9,28.6,28.66,North,0,5.0,13.0,91,0.00,,,0.00,meteohub,2013-04-19 09:27:00,
2013-04-19 04:32:00,30.9,28.4,28.69,West,270,8.0,13.0,90,0.00,,,0.00,meteohub,2013-04-19 09:32:00,
2013-04-19 04:37:00,30.7,28.2,28.69,WNW,292,6.0,13.0,90,0.00,,,0.00,meteohub,2013-04-19 09:37:00,
2013-04-19 04:42:00,30.7,28.2,28.69,North,0,6.0,10.0,90,0.00,,,0.00,meteohub,2013-04-19 09:42:00,
2013-04-19 04:47:00,30.9,28.0,28.69,NW,315,6.0,10.0,89,0.00,,,0.00,meteohub,2013-04-19 09:47:00,
2013-04-19 04:52:00,30.7,27.9,28.69,WNW,292,5.0,10.0,89,0.00,,,0.00,meteohub,2013-04-19 09:52:00,
2013-04-19 04:57:00,30.7,27.9,28.69,North,0,11.0,11.0,89,0.00,,,0.00,meteohub,2013-04-19 09:57:00,
2013-04-19 05:02:00,30.7,27.9,28.69,NNW,338,8.0,11.0,89,0.00,,,0.00,meteohub,2013-04-19 10:02:00,
2013-04-19 05:07:00,30.6,27.7,28.69,NW,315,9.0,11.0,89,0.00,,,0.00,meteohub,2013-04-19 10:07:00,
2013-04-19 05:12:00,30.6,28.0,28.69,NW,315,5.0,11.0,90,0.00,,,0.00,meteohub,2013-04-19 10:12:00,
2013-04-19 05:17:00,30.6,28.0,28.69,NNW,338,5.0,10.0,90,0.00,,,0.00,meteohub,2013-04-19 10:17:00,
2013-04-19 05:22:00,30.4,28.0,28.69,NNW,338,5.0,10.0,91,0.00,,,0.00,meteohub,2013-04-19 10:22:00,
2013-04-19 05:27:00,30.4,28.0,28.69,NW,315,7.0,13.0,91,0.00,,,0.00,meteohub,2013-04-19 10:27:00,
2013-04-19 05:32:00,30.4,28.0,28.69,NNW,338,6.0,13.0,91,0.00,,,0.00,meteohub,2013-04-19 10:32:00,
2013-04-19 05:37:00,30.4,27.9,28.69,NW,315,8.0,13.0,90,0.00,,,0.00,meteohub,2013-04-19 10:37:00,
2013-04-19 05:42:00,30.4,27.9,28.69,NE,45,6.0,10.0,90,0.00,,,0.00,meteohub,2013-04-19 10:42:00,
2013-04-19 05:47:00,30.4,27.9,28.66,NNE,22,5.0,10.0,90,0.00,,,0.00,meteohub,2013-04-19 10:47:00,
2013-04-19 05:52:00,30.4,27.5,28.66,NNW,338,9.0,10.0,89,0.00,,,0.00,meteohub,2013-04-19 10:52:00,
2013-04-19 05:57:00,30.4,27.5,28.66,NNW,338,3.0,11.0,89,0.00,,,0.00,meteohub,2013-04-19 10:57:00,
2013-04-19 06:02:00,30.4,27.5,28.69,NNE,22,4.0,14.0,89,0.00,,,0.00,meteohub,2013-04-19 11:02:00,
2013-04-19 06:07:00,30.4,27.5,28.69,NNW,338,4.0,14.0,89,0.00,,,0.00,meteohub,2013-04-19 11:07:00,
2013-04-19 06:12:00,30.4,27.3,28.69,NW,315,5.0,14.0,88,0.00,,,0.00,meteohub,2013-04-19 11:12:00,
2013-04-19 06:17:00,30.2,27.1,28.69,North,0,5.0,12.0,88,0.00,,,0.00,meteohub,2013-04-19 11:17:00,
2013-04-19 06:22:00,30.2,27.1,28.69,NNW,338,11.0,11.0,88,0.00,,,0.00,meteohub,2013-04-19 11:22:00,
2013-04-19 06:27:00,30.2,27.1,28.69,North,0,4.0,11.0,88,0.00,,,0.00,meteohub,2013-04-19 11:27:00,
2013-04-19 06:32:00,30.2,26.8,28.71,NNE,22,4.0,11.0,87,0.00,,,0.00,meteohub,2013-04-19 11:32:00,
2013-04-19 06:37:00,30.2,26.6,28.71,NNE,22,6.0,11.0,86,0.00,,,0.00,meteohub,2013-04-19 11:37:00,
2013-04-19 06:42:00,30.4,26.1,28.71,NNE,22,6.0,12.0,84,0.00,,,0.00,meteohub,2013-04-19 11:42:00,
2013-04-19 06:47:00,30.4,26.1,28.71,NE,45,6.0,12.0,84,0.00,,,0.00,meteohub,2013-04-19 11:47:00,
2013-04-19 06:52:00,30.6,26.1,28.71,NNE,22,4.0,12.0,83,0.00,,,0.00,meteohub,2013-04-19 11:52:00,
2013-04-19 06:57:00,30.6,26.1,28.71,North,0,6.0,10.0,83,0.00,,,0.00,meteohub,2013-04-19 11:57:00,
2013-04-19 07:03:00,30.6,25.5,28.74,NNE,22,5.0,10.0,81,0.00,,,0.00,meteohub,2013-04-19 12:03:00,
2013-04-19 07:08:00,30.6,25.5,28.74,NNE,22,11.0,11.0,81,0.00,,,0.00,meteohub,2013-04-19 12:08:00,
2013-04-19 07:13:00,30.7,25.7,28.74,NNE,22,5.0,12.0,81,0.00,,,0.00,meteohub,2013-04-19 12:13:00,
2013-04-19 07:18:00,30.7,25.7,28.74,NNE,22,6.0,12.0,81,0.00,,,0.00,meteohub,2013-04-19 12:18:00,
2013-04-19 07:23:00,30.7,25.0,28.74,NNE,22,6.0,12.0,79,0.00,,,0.00,meteohub,2013-04-19 12:23:00,
2013-04-19 07:28:00,31.1,25.3,28.74,NNE,22,6.0,10.0,79,0.00,,,0.00,meteohub,2013-04-19 12:28:00,
2013-04-19 07:33:00,31.3,25.2,28.74,WSW,248,3.0,13.0,78,0.00,,,0.00,meteohub,2013-04-19 12:33:00,
2013-04-19 07:38:00,31.1,24.4,28.74,NNE,22,6.0,13.0,76,0.00,,,0.00,meteohub,2013-04-19 12:38:00,
2013-04-19 07:44:00,30.9,23.9,28.74,NNW,338,6.0,13.0,75,0.00,,,0.00,meteohub,2013-04-19 12:44:00,
2013-04-19 07:49:00,31.5,24.4,28.74,NNE,22,7.0,10.0,75,0.00,,,0.00,meteohub,2013-04-19 12:49:00,
2013-04-19 07:54:00,32.0,25.0,28.74,NE,45,7.0,10.0,75,0.00,,,0.00,meteohub,2013-04-19 12:54:00,
2013-04-19 07:59:00,32.0,24.6,28.74,NNW,338,6.0,10.0,74,0.00,,,0.00,meteohub,2013-04-19 12:59:00,
2013-04-19 08:04:00,32.4,25.0,28.74,NNE,22,9.0,13.0,74,0.00,,,0.00,meteohub,2013-04-19 13:04:00,
2013-04-19 08:09:00,32.5,25.2,28.74,NNE,22,6.0,13.0,74,0.00,,,0.00,meteohub,2013-04-19 13:09:00,
2013-04-19 08:15:00,32.7,25.0,28.74,WNW,292,11.0,11.0,73,0.00,,,0.00,meteohub,2013-04-19 13:15:00,
2013-04-19 08:20:00,32.7,25.0,28.74,North,0,5.0,11.0,73,0.00,,,0.00,meteohub,2013-04-19 13:20:00,
2013-04-19 08:25:00,32.7,25.0,28.74,NNW,338,4.0,11.0,73,0.00,,,0.00,meteohub,2013-04-19 13:25:00,
2013-04-19 08:30:00,32.7,25.0,28.74,North,0,4.0,11.0,73,0.00,,,0.00,meteohub,2013-04-19 13:30:00,
2013-04-19 08:35:00,32.9,25.0,28.74,NNW,338,6.0,11.0,72,0.00,,,0.00,meteohub,2013-04-19 13:35:00,
2013-04-19 08:40:00,32.7,24.1,28.74,NNW,338,3.0,10.0,70,0.00,,,0.00,meteohub,2013-04-19 13:40:00,
2013-04-19 08:46:00,32.5,23.5,28.77,NNW,338,4.0,11.0,69,0.00,,,0.00,meteohub,2013-04-19 13:46:00,
2013-04-19 08:51:00,32.5,23.5,28.77,NNE,22,5.0,12.0,69,0.00,,,0.00,meteohub,2013-04-19 13:51:00,
2013-04-19 08:56:00,32.2,22.8,28.77,NNW,338,11.0,15.0,68,0.00,,,0.00,meteohub,2013-04-19 13:56:00,
2013-04-19 09:01:00,32.5,22.8,28.77,NNE,22,5.0,15.0,67,0.00,,,0.00,meteohub,2013-04-19 14:01:00,
2013-04-19 09:06:00,32.7,22.3,28.77,NNE,22,8.0,13.0,65,0.00,,,0.00,meteohub,2013-04-19 14:06:00,
2013-04-19 09:11:00,33.6,23.2,28.77,NNW,338,6.0,13.0,65,0.00,,,0.00,meteohub,2013-04-19 14:11:00,
2013-04-19 09:16:00,34.0,22.8,28.77,North,0,6.0,13.0,63,0.00,,,0.00,meteohub,2013-04-19 14:16:00,
2013-04-19 09:21:00,34.9,23.2,28.77,NNW,338,4.0,10.0,62,0.00,,,0.00,meteohub,2013-04-19 14:21:00,
2013-04-19 09:26:00,34.3,21.6,28.77,NNE,22,7.0,15.0,59,0.00,,,0.00,meteohub,2013-04-19 14:26:00,
2013-04-19 09:31:00,34.5,21.7,28.77,NNE,22,11.0,15.0,59,0.00,,,0.00,meteohub,2013-04-19 14:31:00,
2013-04-19 09:37:00,34.3,21.2,28.77,North,0,8.0,12.0,58,0.00,,,0.00,meteohub,2013-04-19 14:37:00,
2013-04-19 09:42:00,34.2,21.4,28.77,NNW,338,4.0,12.0,59,0.00,,,0.00,meteohub,2013-04-19 14:42:00,
2013-04-19 09:47:00,33.8,21.7,28.77,North,0,7.0,15.0,61,0.00,,,0.00,meteohub,2013-04-19 14:47:00,
2013-04-19 09:52:00,34.3,22.3,28.77,NW,315,8.0,15.0,61,0.00,,,0.00,meteohub,2013-04-19 14:52:00,
2013-04-19 09:57:00,34.5,21.7,28.77,NNE,22,4.0,15.0,59,0.00,,,0.00,meteohub,2013-04-19 14:57:00,
2013-04-19 10:02:00,34.2,20.5,28.80,North,0,6.0,14.0,57,0.00,,,0.00,meteohub,2013-04-19 15:02:00,
2013-04-19 10:07:00,33.8,20.3,28.80,NNE,22,8.0,14.0,57,0.00,,,0.00,meteohub,2013-04-19 15:07:00,
2013-04-19 10:12:00,33.8,20.3,28.80,NNW,338,6.0,14.0,57,0.00,,,0.00,meteohub,2013-04-19 15:12:00,
2013-04-19 10:17:00,34.9,21.2,28.80,North,0,6.0,13.0,57,0.00,,,0.00,meteohub,2013-04-19 15:17:00,
2013-04-19 10:22:00,35.1,21.0,28.80,NNW,338,12.0,13.0,56,0.00,,,0.00,meteohub,2013-04-19 15:22:00,
2013-04-19 10:27:00,35.4,20.8,28.80,NNE,22,8.0,13.0,55,0.00,,,0.00,meteohub,2013-04-19 15:27:00,
2013-04-19 10:32:00,36.3,21.4,28.80,North,0,6.0,13.0,54,0.00,,,0.00,meteohub,2013-04-19 15:32:00,
2013-04-19 10:37:00,36.3,20.8,28.80,NNE,22,8.0,13.0,53,0.00,,,0.00,meteohub,2013-04-19 15:37:00,
2013-04-19 10:42:00,36.3,20.8,28.80,NNE,22,11.0,15.0,53,0.00,,,0.00,meteohub,2013-04-19 15:42:00,
2013-04-19 10:47:00,36.3,20.8,28.80,North,0,9.0,15.0,53,0.00,,,0.00,meteohub,2013-04-19 15:47:00,
2013-04-19 10:52:00,36.3,20.8,28.80,North,0,6.0,12.0,53,0.00,,,0.00,meteohub,2013-04-19 15:52:00,
2013-04-19 10:57:00,35.6,20.1,28.80,NNW,338,8.0,11.0,53,0.00,,,0.00,meteohub,2013-04-19 15:57:00,
2013-04-19 11:02:00,35.4,20.1,28.80,North,0,11.0,16.0,53,0.00,,,0.00,meteohub,2013-04-19 16:02:00,
2013-04-19 11:07:00,38.3,22.3,28.80,NNE,22,6.0,16.0,52,0.00,,,0.00,meteohub,2013-04-19 16:07:00,
2013-04-19 11:12:00,36.7,20.8,28.80,North,0,9.0,16.0,52,0.00,,,0.00,meteohub,2013-04-19 16:12:00,
2013-04-19 11:17:00,35.8,20.3,28.80,NNE,22,5.0,15.0,53,0.00,,,0.00,meteohub,2013-04-19 16:17:00,
2013-04-19 11:22:00,35.8,20.8,28.80,North,0,6.0,13.0,54,0.00,,,0.00,meteohub,2013-04-19 16:22:00,
2013-04-19 11:27:00,35.6,20.7,28.80,NNE,22,6.0,11.0,54,0.00,,,0.00,meteohub,2013-04-19 16:27:00,
2013-04-19 11:32:00,36.0,21.0,28.80,North,0,8.0,11.0,54,0.00,,,0.00,meteohub,2013-04-19 16:32:00,
2013-04-19 11:37:00,35.8,20.8,28.80,NNW,338,9.0,24.0,54,0.00,,,0.00,meteohub,2013-04-19 16:37:00,
2013-04-19 11:42:00,36.0,20.1,28.80,NNE,22,11.0,24.0,52,0.00,,,0.00,meteohub,2013-04-19 16:42:00,
2013-04-19 11:47:00,37.4,21.0,28.83,North,0,9.0,24.0,51,0.00,,,0.00,meteohub,2013-04-19 16:47:00,
2013-04-19 11:52:00,37.4,21.0,28.83,NW,315,11.0,15.0,51,0.00,,,0.00,meteohub,2013-04-19 16:52:00,
2013-04-19 11:57:00,36.7,20.3,28.83,North,0,8.0,15.0,51,0.00,,,0.00,meteohub,2013-04-19 16:57:00,
2013-04-19 12:02:00,37.6,21.2,28.83,North,0,4.0,13.0,51,0.00,,,0.00,meteohub,2013-04-19 17:02:00,
2013-04-19 12:07:00,37.2,20.3,28.83,NNE,22,8.0,13.0,50,0.00,,,0.00,meteohub,2013-04-19 17:07:00,
2013-04-19 12:12:00,39.2,21.7,28.83,North,0,6.0,12.0,49,0.00,,,0.00,meteohub,2013-04-19 17:12:00,
2013-04-19 12:17:00,40.3,21.7,28.86,North,0,6.0,15.0,47,0.00,,,0.00,meteohub,2013-04-19 17:17:00,
2013-04-19 12:22:00,40.5,21.4,28.86,North,0,6.0,15.0,46,0.00,,,0.00,meteohub,2013-04-19 17:22:00,
2013-04-19 12:27:00,40.5,20.8,28.86,North,0,6.0,13.0,45,0.00,,,0.00,meteohub,2013-04-19 17:27:00,
2013-04-19 12:32:00,38.8,19.9,28.86,NNW,338,14.0,14.0,46,0.00,,,0.00,meteohub,2013-04-19 17:32:00,
2013-04-19 12:37:00,39.9,20.8,28.86,North,0,7.0,14.0,46,0.00,,,0.00,meteohub,2013-04-19 17:37:00,
2013-04-19 12:42:00,39.9,21.4,28.86,NW,315,10.0,15.0,47,0.00,,,0.00,meteohub,2013-04-19 17:42:00,
2013-04-19 12:47:00,38.7,20.3,28.86,NNW,338,8.0,15.0,47,0.00,,,0.00,meteohub,2013-04-19 17:47:00,
2013-04-19 12:52:00,37.2,19.9,28.86,North,0,5.0,15.0,49,0.00,,,0.00,meteohub,2013-04-19 17:52:00,
2013-04-19 12:57:00,41.0,21.9,28.86,WNW,292,11.0,15.0,46,0.00,,,0.00,meteohub,2013-04-19 17:57:00,
2013-04-19 13:02:00,42.4,23.2,28.86,NNE,22,6.0,13.0,46,0.00,,,0.00,meteohub,2013-04-19 18:02:00,
2013-04-19 13:07:00,41.2,21.0,28.86,North,0,12.0,17.0,44,0.00,,,0.00,meteohub,2013-04-19 18:07:00,
2013-04-19 13:12:00,40.6,21.0,28.86,NNE,22,8.0,17.0,45,0.00,,,0.00,meteohub,2013-04-19 18:12:00,
2013-04-19 13:17:00,39.0,19.0,28.86,North,0,7.0,23.0,44,0.00,,,0.00,meteohub,2013-04-19 18:17:00,
2013-04-19 13:22:00,39.9,19.2,28.86,NNE,22,11.0,23.0,43,0.00,,,0.00,meteohub,2013-04-19 18:22:00,
2013-04-19 13:27:00,39.9,19.2,28.86,North,0,10.0,23.0,43,0.00,,,0.00,meteohub,2013-04-19 18:27:00,
2013-04-19 13:32:00,41.4,20.7,28.86,NNE,22,4.0,18.0,43,0.00,,,0.00,meteohub,2013-04-19 18:32:00,
2013-04-19 13:37:00,43.5,21.9,28.86,NNW,338,10.0,23.0,42,0.00,,,0.00,meteohub,2013-04-19 18:37:00,
2013-04-19 13:42:00,41.2,20.5,28.86,NNE,22,13.0,23.0,43,0.00,,,0.00,meteohub,2013-04-19 18:42:00,
2013-04-19 13:47:00,40.6,19.9,28.86,North,0,5.0,15.0,43,0.00,,,0.00,meteohub,2013-04-19 18:47:00,
2013-04-19 13:52:00,40.5,19.8,28.86,NNE,22,11.0,17.0,43,0.00,,,0.00,meteohub,2013-04-19 18:52:00,
2013-04-19 13:57:00,41.7,20.8,28.86,North,0,15.0,17.0,43,0.00,,,0.00,meteohub,2013-04-19 18:57:00,
2013-04-19 14:02:00,40.3,19.6,28.86,NNE,22,5.0,15.0,43,0.00,,,0.00,meteohub,2013-04-19 19:02:00,
2013-04-19 14:07:00,43.3,21.2,28.86,NNE,22,8.0,15.0,41,0.00,,,0.00,meteohub,2013-04-19 19:07:00,
2013-04-19 14:12:00,41.7,19.8,28.86,NNE,22,9.0,15.0,41,0.00,,,0.00,meteohub,2013-04-19 19:12:00,
2013-04-19 14:17:00,40.6,19.4,28.86,NNE,22,12.0,13.0,42,0.00,,,0.00,meteohub,2013-04-19 19:17:00,
2013-04-19 14:22:00,39.6,19.0,28.86,North,0,6.0,22.0,43,0.00,,,0.00,meteohub,2013-04-19 19:22:00,
2013-04-19 14:27:00,39.0,19.0,28.86,NNE,22,9.0,22.0,44,0.00,,,0.00,meteohub,2013-04-19 19:27:00,
2013-04-19 14:32:00,41.7,21.4,28.89,NNE,22,6.0,22.0,44,0.00,,,0.00,meteohub,2013-04-19 19:32:00,
2013-04-19 14:37:00,41.5,20.8,28.89,NNE,22,4.0,16.0,43,0.00,,,0.00,meteohub,2013-04-19 19:37:00,
2013-04-19 14:42:00,43.7,21.6,28.89,NNE,22,7.0,17.0,41,0.00,,,0.00,meteohub,2013-04-19 19:42:00,
2013-04-19 14:47:00,42.1,20.7,28.89,WNW,292,7.0,17.0,42,0.00,,,0.00,meteohub,2013-04-19 19:47:00,
2013-04-19 14:52:00,42.6,20.7,28.89,NNW,338,9.0,17.0,41,0.00,,,0.00,meteohub,2013-04-19 19:52:00,
2013-04-19 14:57:00,43.9,21.7,28.89,North,0,11.0,17.0,41,0.00,,,0.00,meteohub,2013-04-19 19:57:00,
2013-04-19 15:02:00,43.2,20.5,28.89,NNE,22,9.0,13.0,40,0.00,,,0.00,meteohub,2013-04-19 20:02:00,
2013-04-19 15:07:00,42.3,20.3,28.89,NNW,338,8.0,13.0,41,0.00,,,0.00,meteohub,2013-04-19 20:07:00,
2013-04-19 15:12:00,43.3,20.7,28.89,NNW,338,4.0,13.0,40,0.00,,,0.00,meteohub,2013-04-19 20:12:00,
2013-04-19 15:17:00,41.0,19.2,28.92,NNE,22,6.0,15.0,41,0.00,,,0.00,meteohub,2013-04-19 20:17:00,
2013-04-19 15:22:00,41.2,18.7,28.92,North,0,9.0,15.0,40,0.00,,,0.00,meteohub,2013-04-19 20:22:00,
2013-04-19 15:27:00,42.8,20.1,28.92,NNW,338,6.0,16.0,40,0.00,,,0.00,meteohub,2013-04-19 20:27:00,
2013-04-19 15:32:00,41.2,19.4,28.92,North,0,6.0,16.0,41,0.00,,,0.00,meteohub,2013-04-19 20:32:00,
2013-04-19 15:37:00,39.4,18.3,28.92,NNE,22,7.0,16.0,42,0.00,,,0.00,meteohub,2013-04-19 20:37:00,
2013-04-19 15:42:00,40.8,19.0,28.92,NNE,22,17.0,17.0,41,0.00,,,0.00,meteohub,2013-04-19 20:42:00,
2013-04-19 15:47:00,41.9,19.4,28.92,NNW,338,6.0,17.0,40,0.00,,,0.00,meteohub,2013-04-19 20:47:00,
2013-04-19 15:52:00,42.3,19.8,28.92,NNE,22,11.0,17.0,40,0.00,,,0.00,meteohub,2013-04-19 20:52:00,
2013-04-19 15:57:00,41.0,19.2,28.92,North,0,6.0,17.0,41,0.00,,,0.00,meteohub,2013-04-19 20:57:00,
2013-04-19 16:02:00,40.6,18.9,28.92,NNW,338,6.0,13.0,41,0.00,,,0.00,meteohub,2013-04-19 21:02:00,
2013-04-19 16:07:00,41.4,19.4,28.92,NNE,22,9.0,13.0,41,0.00,,,0.00,meteohub,2013-04-19 21:07:00,
2013-04-19 16:12:00,39.0,18.5,28.92,North,0,5.0,12.0,43,0.00,,,0.00,meteohub,2013-04-19 21:12:00,
2013-04-19 16:17:00,40.8,19.6,28.92,NW,315,10.0,11.0,42,0.00,,,0.00,meteohub,2013-04-19 21:17:00,
2013-04-19 16:22:00,41.2,19.9,28.92,NNW,338,11.0,12.0,42,0.00,,,0.00,meteohub,2013-04-19 21:22:00,
2013-04-19 16:27:00,40.8,19.6,28.92,NNW,338,6.0,13.0,42,0.00,,,0.00,meteohub,2013-04-19 21:27:00,
2013-04-19 16:32:00,39.2,18.1,28.92,NNW,338,5.0,13.0,42,0.00,,,0.00,meteohub,2013-04-19 21:32:00,
2013-04-19 16:37:00,39.0,18.5,28.92,NNE,22,7.0,13.0,43,0.00,,,0.00,meteohub,2013-04-19 21:37:00,
2013-04-19 16:42:00,38.7,18.1,28.92,WNW,292,8.0,13.0,43,0.00,,,0.00,meteohub,2013-04-19 21:42:00,
2013-04-19 16:47:00,39.7,18.0,28.98,North,0,9.0,13.0,41,0.00,,,0.00,meteohub,2013-04-19 21:47:00,
2013-04-19 16:52:00,41.0,19.2,28.98,North,0,13.0,13.0,41,0.00,,,0.00,meteohub,2013-04-19 21:52:00,
2013-04-19 16:57:00,40.8,18.5,28.98,NNW,338,9.0,13.0,40,0.00,,,0.00,meteohub,2013-04-19 21:57:00,
2013-04-19 17:02:00,40.6,18.3,28.98,NNE,22,11.0,13.0,40,0.00,,,0.00,meteohub,2013-04-19 22:02:00,
2013-04-19 17:07:00,39.7,17.4,28.98,NNE,22,6.0,13.0,40,0.00,,,0.00,meteohub,2013-04-19 22:07:00,
2013-04-19 17:12:00,39.7,18.0,28.98,NNE,22,8.0,17.0,41,0.00,,,0.00,meteohub,2013-04-19 22:12:00,
2013-04-19 17:17:00,39.2,17.6,28.98,NNE,22,5.0,17.0,41,0.00,,,0.00,meteohub,2013-04-19 22:17:00,
2013-04-19 17:22:00,39.0,18.0,28.98,West,270,9.0,12.0,42,0.00,,,0.00,meteohub,2013-04-19 22:22:00,
2013-04-19 17:27:00,39.2,18.1,28.98,NNW,338,6.0,13.0,42,0.00,,,0.00,meteohub,2013-04-19 22:27:00,
2013-04-19 17:32:00,39.7,18.5,28.95,SSW,202,5.0,13.0,42,0.00,,,0.00,meteohub,2013-04-19 22:32:00,
2013-04-19 17:37:00,40.3,19.0,28.95,NNE,22,4.0,12.0,42,0.00,,,0.00,meteohub,2013-04-19 22:37:00,
2013-04-19 17:42:00,40.3,19.6,28.95,NNE,22,5.0,12.0,43,0.00,,,0.00,meteohub,2013-04-19 22:42:00,
2013-04-19 17:47:00,39.4,18.3,28.95,NW,315,7.0,12.0,42,0.00,,,0.00,meteohub,2013-04-19 22:47:00,
2013-04-19 17:52:00,39.4,18.3,28.95,NNE,22,6.0,12.0,42,0.00,,,0.00,meteohub,2013-04-19 22:52:00,
2013-04-19 17:57:00,39.6,18.5,28.95,NNE,22,6.0,11.0,42,0.00,,,0.00,meteohub,2013-04-19 22:57:00,
2013-04-19 18:02:00,39.6,18.5,28.98,NNW,338,8.0,11.0,42,0.00,,,0.00,meteohub,2013-04-19 23:02:00,
2013-04-19 18:07:00,39.6,18.5,28.98,WSW,248,5.0,11.0,42,0.00,,,0.00,meteohub,2013-04-19 23:07:00,
2013-04-19 18:12:00,39.9,18.7,28.98,NNE,22,4.0,12.0,42,0.00,,,0.00,meteohub,2013-04-19 23:12:00,
2013-04-19 18:17:00,39.2,17.6,29.01,North,0,6.0,13.0,41,0.00,,,0.00,meteohub,2013-04-19 23:17:00,
2013-04-19 18:22:00,39.7,18.0,29.01,North,0,4.0,13.0,41,0.00,,,0.00,meteohub,2013-04-19 23:22:00,
2013-04-19 18:27:00,38.8,17.2,29.01,West,270,6.0,13.0,41,0.00,,,0.00,meteohub,2013-04-19 23:27:00,
2013-04-19 18:32:00,39.0,18.0,29.01,NW,315,10.0,10.0,42,0.00,,,0.00,meteohub,2013-04-19 23:32:00,
2013-04-19 18:37:00,39.2,17.6,29.01,NNE,22,6.0,13.0,41,0.00,,,0.00,meteohub,2013-04-19 23:37:00,
2013-04-19 18:42:00,39.0,18.0,29.01,WNW,292,6.0,13.0,42,0.00,,,0.00,meteohub,2013-04-19 23:42:00,
2013-04-19 18:47:00,38.5,16.9,29.01,NNE,22,8.0,13.0,41,0.00,,,0.00,meteohub,2013-04-19 23:47:00,
2013-04-19 18:52:00,37.6,16.2,29.01,North,0,9.0,15.0,41,0.00,,,0.00,meteohub,2013-04-19 23:52:00,
2013-04-19 18:57:00,37.6,16.7,29.01,NNE,22,4.0,15.0,42,0.00,,,0.00,meteohub,2013-04-19 23:57:00,
2013-04-19 19:02:00,38.5,17.4,29.01,NW,315,5.0,15.0,42,0.00,,,0.00,meteohub,2013-04-20 00:02:00,
2013-04-19 19:07:00,38.5,17.4,29.01,NNW,338,4.0,9.0,42,0.00,,,0.00,meteohub,2013-04-20 00:07:00,
2013-04-19 19:12:00,38.8,17.8,29.01,North,0,4.0,8.0,42,0.00,,,0.00,meteohub,2013-04-20 00:12:00,
2013-04-19 19:17:00,38.8,17.8,29.01,NNW,338,3.0,8.0,42,0.00,,,0.00,meteohub,2013-04-20 00:17:00,
2013-04-19 19:22:00,38.5,17.4,29.01,NNW,338,4.0,6.0,42,0.00,,,0.00,meteohub,2013-04-20 00:22:00,
2013-04-19 19:27:00,38.1,17.1,29.01,WNW,292,6.0,6.0,42,0.00,,,0.00,meteohub,2013-04-20 00:27:00,
2013-04-19 19:32:00,37.9,16.9,29.04,NW,315,4.0,6.0,42,0.00,,,0.00,meteohub,2013-04-20 00:32:00,
2013-04-19 19:37:00,38.1,17.1,29.04,NW,315,3.0,8.0,42,0.00,,,0.00,meteohub,2013-04-20 00:37:00,
2013-04-19 19:42:00,37.6,16.7,29.04,NW,315,2.0,8.0,42,0.00,,,0.00,meteohub,2013-04-20 00:42:00,
2013-04-19 19:47:00,37.4,16.5,29.04,North,0,2.0,7.0,42,0.00,,,0.00,meteohub,2013-04-20 00:47:00,
2013-04-19 19:52:00,36.9,16.5,29.04,NNW,338,1.0,7.0,43,0.00,,,0.00,meteohub,2013-04-20 00:52:00,
2013-04-19 19:57:00,36.0,15.6,29.04,WNW,292,4.0,7.0,43,0.00,,,0.00,meteohub,2013-04-20 00:57:00,
2013-04-19 20:02:00,35.8,15.6,29.01,West,270,2.0,7.0,43,0.00,,,0.00,meteohub,2013-04-20 01:02:00,
2013-04-19 20:07:00,35.2,16.2,29.01,WNW,292,3.0,4.0,45,0.00,,,0.00,meteohub,2013-04-20 01:07:00,
2013-04-19 20:12:00,34.9,16.7,29.01,NNW,338,4.0,6.0,47,0.00,,,0.00,meteohub,2013-04-20 01:12:00,
2013-04-19 20:17:00,34.7,16.5,29.04,West,270,3.0,6.0,47,0.00,,,0.00,meteohub,2013-04-20 01:17:00,
2013-04-19 20:22:00,34.3,17.6,29.04,WNW,292,4.0,6.0,50,0.00,,,0.00,meteohub,2013-04-20 01:22:00,
2013-04-19 20:27:00,34.2,17.6,29.04,WNW,292,5.0,8.0,50,0.00,,,0.00,meteohub,2013-04-20 01:27:00,
2013-04-19 20:32:00,33.8,17.6,29.04,NNW,338,2.0,8.0,51,0.00,,,0.00,meteohub,2013-04-20 01:32:00,
2013-04-19 20:37:00,33.6,17.4,29.04,West,270,4.0,8.0,51,0.00,,,0.00,meteohub,2013-04-20 01:37:00,
2013-04-19 20:42:00,33.4,17.2,29.04,WNW,292,4.0,8.0,51,0.00,,,0.00,meteohub,2013-04-20 01:42:00,
2013-04-19 20:47:00,33.3,17.6,29.04,North,0,3.0,8.0,52,0.00,,,0.00,meteohub,2013-04-20 01:47:00,
2013-04-19 20:52:00,33.1,17.4,29.04,WNW,292,4.0,9.0,52,0.00,,,0.00,meteohub,2013-04-20 01:52:00,
2013-04-19 20:57:00,32.9,17.2,29.04,WNW,292,6.0,9.0,52,0.00,,,0.00,meteohub,2013-04-20 01:57:00,
2013-04-19 21:02:00,32.7,17.1,29.07,NW,315,4.0,9.0,52,0.00,,,0.00,meteohub,2013-04-20 02:02:00,
2013-04-19 21:07:00,32.7,17.1,29.07,WNW,292,6.0,6.0,52,0.00,,,0.00,meteohub,2013-04-20 02:07:00,
2013-04-19 21:12:00,32.5,16.9,29.07,West,270,6.0,8.0,52,0.00,,,0.00,meteohub,2013-04-20 02:12:00,
2013-04-19 21:17:00,32.5,16.9,29.07,WNW,292,4.0,8.0,52,0.00,,,0.00,meteohub,2013-04-20 02:17:00,
2013-04-19 21:22:00,32.5,16.9,29.07,WNW,292,4.0,8.0,52,0.00,,,0.00,meteohub,2013-04-20 02:22:00,
2013-04-19 21:27:00,32.4,16.3,29.07,WNW,292,6.0,8.0,51,0.00,,,0.00,meteohub,2013-04-20 02:27:00,
2013-04-19 21:32:00,32.2,16.2,29.10,NNW,338,5.0,8.0,51,0.00,,,0.00,meteohub,2013-04-20 02:32:00,
2013-04-19 21:37:00,32.2,16.2,29.10,NW,315,7.0,7.0,51,0.00,,,0.00,meteohub,2013-04-20 02:37:00,
2013-04-19 21:42:00,32.2,16.2,29.10,NW,315,3.0,9.0,51,0.00,,,0.00,meteohub,2013-04-20 02:42:00,
2013-04-19 21:47:00,32.0,16.0,29.10,North,0,4.0,9.0,51,0.00,,,0.00,meteohub,2013-04-20 02:47:00,
2013-04-19 21:52:00,32.0,16.0,29.10,North,0,5.0,9.0,51,0.00,,,0.00,meteohub,2013-04-20 02:52:00,
2013-04-19 21:57:00,31.8,15.8,29.10,NNW,338,4.0,9.0,51,0.00,,,0.00,meteohub,2013-04-20 02:57:00,
2013-04-19 22:02:00,31.8,15.8,29.10,North,0,6.0,9.0,51,0.00,,,0.00,meteohub,2013-04-20 03:02:00,
2013-04-19 22:07:00,31.6,15.6,29.10,NNW,338,8.0,9.0,51,0.00,,,0.00,meteohub,2013-04-20 03:07:00,
2013-04-19 22:12:00,31.5,15.4,29.10,WNW,292,10.0,10.0,51,0.00,,,0.00,meteohub,2013-04-20 03:12:00,
2013-04-19 22:17:00,31.3,15.3,29.10,NNW,338,4.0,10.0,51,0.00,,,0.00,meteohub,2013-04-20 03:17:00,
2013-04-19 22:22:00,31.1,15.1,29.10,WNW,292,5.0,10.0,51,0.00,,,0.00,meteohub,2013-04-20 03:22:00,
2013-04-19 22:27:00,31.1,15.1,29.10,NNW,338,5.0,10.0,51,0.00,,,0.00,meteohub,2013-04-20 03:27:00,
2013-04-19 22:32:00,31.1,15.1,29.13,NNW,338,8.0,8.0,51,0.00,,,0.00,meteohub,2013-04-20 03:32:00,
2013-04-19 22:37:00,30.9,14.9,29.13,NNW,338,5.0,9.0,51,0.00,,,0.00,meteohub,2013-04-20 03:37:00,
2013-04-19 22:42:00,30.7,14.7,29.13,NNE,22,4.0,9.0,51,0.00,,,0.00,meteohub,2013-04-20 03:42:00,
2013-04-19 22:47:00,30.7,14.7,29.10,NNW,338,4.0,8.0,51,0.00,,,0.00,meteohub,2013-04-20 03:47:00,
2013-04-19 22:52:00,30.6,14.5,29.10,WNW,292,4.0,8.0,51,0.00,,,0.00,meteohub,2013-04-20 03:52:00,
2013-04-19 22:57:00,30.6,14.5,29.10,WNW,292,7.0,11.0,51,0.00,,,0.00,meteohub,2013-04-20 03:57:00,
2013-04-19 23:01:00,30.4,14.4,29.10,NW,315,4.0,11.0,51,0.00,,,0.00,meteohub,2013-04-20 04:01:00,
2013-04-19 23:02:00,30.4,14.4,29.10,NW,315,3.0,11.0,51,0.00,,,0.00,meteohub,2013-04-20 04:02:00,
2013-04-19 23:07:00,30.2,14.4,29.10,NW,315,5.0,11.0,51,0.00,,,0.00,meteohub,2013-04-20 04:07:00,
2013-04-19 23:12:00,30.2,14.4,29.10,WNW,292,6.0,8.0,51,0.00,,,0.00,meteohub,2013-04-20 04:12:00,
2013-04-19 23:18:00,30.2,14.4,29.13,NW,315,4.0,8.0,51,0.00,,,0.00,meteohub,2013-04-20 04:18:00,
2013-04-19 23:23:00,30.0,14.2,29.13,NNE,22,4.0,8.0,51,0.00,,,0.00,meteohub,2013-04-20 04:23:00,
2013-04-19 23:28:00,29.8,14.0,29.13,NW,315,4.0,8.0,51,0.00,,,0.00,meteohub,2013-04-20 04:28:00,
2013-04-19 23:33:00,29.7,13.8,29.13,NNW,338,5.0,8.0,51,0.00,,,0.00,meteohub,2013-04-20 04:33:00,
2013-04-19 23:38:00,29.7,13.8,29.13,NE,45,4.0,10.0,51,0.00,,,0.00,meteohub,2013-04-20 04:38:00,
2013-04-19 23:43:00,29.5,13.6,29.13,NW,315,3.0,10.0,51,0.00,,,0.00,meteohub,2013-04-20 04:43:00,
2013-04-19 23:48:00,29.3,13.8,29.13,NW,315,4.0,10.0,52,0.00,,,0.00,meteohub,2013-04-20 04:48:00,
2013-04-19 23:53:00,29.3,13.8,29.13,WNW,292,2.0,8.0,52,0.00,,,0.00,meteohub,2013-04-20 04:53:00,
2013-04-19 23:59:00,29.1,13.6,29.13,NW,315,3.0,8.0,52,0.00,,,0.00,meteohub,2013-04-20 04:59:00,